Volver al catálogo

STARLINK-31819

ActivoComunicacionesVLEO
NORAD 59738·PAYLOAD·🇺🇸 United States

Lanzado May 13, 2024 desde Cape Canaveral Space Force Station

Loading…

Próximos Pases (próximas 24 horas)

TLE

ActualizadoSource: CelesTrak SupGP

Época: Sep 15, 2026, 02:36 UTC

1 59738C 24090J   26258.10881944 -.00024190  00000+0 -87627-3 0  2583
2 59738  43.0024 193.7732 0001311 270.9853 287.4039 15.27586583    13

Sigue STARLINK-31819 en tiempo real con AllMySat

Download on the App Store